Wind_Speed
21 23 20 19 17 17 15 15 13 12 11 13 18 16 15 14 10 10 8 12 12 12 12 12 12 12 12 11 11 11 11 11 11
21 23 21 20 18 16 15 15 13 12 13 15 16 15 13 13 11 7 8 11 11 11 11 11 11 11 11 11 11 11 11 12 12
24 21 21 19 17 16 16 16 13 13 13 14 13 13 12 10 9 4 7 10 9 9 9 10 10 10 10 10 10 10 10 10 11
22 21 21 18 18 17 16 14 12 12 12 12 11 11 10 10 6 3 6 8 8 8 8 8 8 8 9 8 8 8 9 9 10
21 21 20 19 17 17 16 13 12 11 10 10 10 11 9 7 7 4 1 6 6 6 6 6 6 6 7 8 8 8 8 8 8
22 21 19 19 17 17 15 13 11 10 9 8 8 9 6 5 4 4 1 4 4 4 4 3 4 4 5 5 7 7 7 7 7
21 21 20 18 16 16 14 12 11 9 6 6 6 6 5 5 5 5 2 3 4 2 1 1 2 3 3 3 4 5 6 6 6
22 21 20 18 17 16 14 13 11 9 9 6 3 2 4 5 5 5 4 4 4 4 2 1 1 2 3 2 3 4 4 4 4
20 22 22 20 19 15 13 11 10 8 5 8 6 8 6 6 7 7 4 5 5 5 4 3 4 4 5 5 5 4 4 4 4
20 15 19 18 16 15 12 12 9 11 10 10 9 7 7 6 8 5 5 4 5 4 5 5 6 7 7 10 9 7 5 5 5
20 19 19 18 17 14 14 14 11 11 11 11 9 9 8 8 7 7 8 6 5 6 6 7 8 8 9 11 11 9 10 8 7
20 19 20 18 15 16 14 13 13 12 11 11 12 11 10 11 10 9 10 7 6 7 6 7 8 9 10 11 11 10 9 9 7
21 18 20 18 16 15 14 14 12 12 12 11 12 12 11 11 11 10 10 10 9 4 4 8 7 10 12 11 11 10 10 7 6
21 19 17 16 17 16 15 14 14 14 13 14 14 15 13 12 11 9 9 10 8 4 7 7 7 10 8 10 10 8 7 8 6
19 18 16 15 16 15 14 14 15 15 15 14 14 12 12 12 12 11 11 7 4 4 5 8 6 6 6 6 9 9 7 9 7
20 17 14 14 15 16 15 16 15 16 15 12 15 14 15 15 15 12 10 3 5 6 4 2 3 3 4 6 5 4 6 8 7
17 17 16 14 15 16 16 18 17 16 17 12 6 2 9 19 17 9 7 7 2 3 5 5 4 4 4 7 6 6 7 7 6
16 17 16 17 13 18 18 17 11 10 15 23 8 2 4 5 12 13 10 6 5 5 5 4 5 4 7 8 5 6 8 6 5
14 15 14 17 20 19 20 15 13 12 9 16 25 13 2 2 2 13 11 8 7 4 5 3 6 7 6 6 5 4 6 6 4
14 15 15 20 17 18 17 17 15 15 16 13 14 11 4 8 6 2 2 6 9 10 10 8 3 5 6 4 4 4 5 4 3
Wind_Direction
151 146 143 151 151 150 151 139 136 131 129 127 123 116 102 98 89 107 97 89 84 79 76 74 71 67 64 63 59 55 53 50 50
159 148 151 152 155 164 154 146 143 131 129 131 130 114 103 101 108 99 90 90 88 85 82 78 72 69 64 62 61 60 59 56 53
158 155 154 156 156 151 151 154 146 136 133 135 134 119 110 113 111 120 104 97 91 87 80 77 72 67 61 59 58 57 56 53 53
158 159 158 160 159 155 162 156 151 145 139 137 137 131 120 124 135 144 101 106 101 91 82 75 67 61 57 55 56 56 55 52 51
160 164 163 161 163 164 163 162 161 156 150 149 143 137 117 118 133 123 113 120 109 96 85 75 65 53 47 46 47 49 47 48 48
166 168 166 166 167 165 166 168 170 168 162 158 153 146 130 142 157 204 190 147 130 98 82 69 57 46 37 42 42 39 37 39 43
161 170 173 174 175 171 173 176 177 175 178 179 170 148 134 188 195 228 244 175 153 158 103 73 32 26 20 23 21 18 20 23 35
175 174 176 178 187 182 185 187 190 183 200 225 210 166 180 202 201 234 249 212 190 183 220 291 322 337 347 344 344 359 355 5 14
171 178 182 188 189 188 197 200 200 186 221 216 235 216 227 221 206 240 245 227 217 207 212 249 288 294 310 303 296 324 342 334 332
174 185 184 181 187 186 199 206 210 204 215 218 224 220 222 217 212 228 254 247 223 225 235 243 263 275 282 287 281 287 300 308 318
178 188 183 186 194 192 198 210 208 219 215 218 222 223 224 231 220 227 250 245 243 252 261 268 269 272 270 277 272 274 280 294 298
190 186 181 188 189 198 203 212 217 221 219 223 225 220 226 232 233 234 239 242 258 263 266 289 288 280 274 274 278 285 271 263 272
187 189 187 194 195 199 208 213 221 222 224 223 227 230 222 231 235 237 225 244 265 242 301 287 295 302 283 273 272 279 277 260 264
189 191 193 193 195 202 206 213 216 224 225 231 232 231 221 227 230 238 234 247 229 271 283 299 301 302 296 266 269 274 265 239 235
184 189 191 195 204 203 210 216 214 221 225 231 233 237 221 228 228 236 241 218 239 264 266 287 292 299 286 294 260 264 240 220 222
193 197 198 205 215 212 214 218 220 220 230 235 232 229 231 233 230 229 232 221 257 243 253 256 273 323 299 304 268 228 223 217 209
198 201 206 212 227 213 218 226 224 227 223 241 216 242 242 236 225 205 182 195 201 267 244 255 260 267 285 279 278 222 187 197 207
198 206 207 215 226 220 222 225 222 225 227 225 214 222 225 161 182 178 178 197 229 233 226 265 271 266 279 278 250 205 197 188 204
204 213 218 228 236 232 228 231 240 255 261 262 237 249 340 187 142 157 179 203 200 239 249 264 281 288 266 271 264 238 218 214 206
214 205 211 221 228 238 243 233 222 235 243 237 255 221 144 62 71 142 130 185 236 240 236 235 261 285 244 239 255 248 221 210 199
Height
809 812 815 818 821 823 824 826 827 828 830 831 833 834 834 835 836 836 836 836 837 837 837 837 837 837 837 837 836 836 836 836 835
811 813 816 819 822 824 825 826 827 829 830 833 834 835 836 837 837 836 837 838 838 838 838 838 839 839 839 838 838 837 837 837 836
812 814 817 820 822 825 826 828 828 829 831 833 835 836 837 838 838 838 838 839 840 839 839 839 840 840 840 839 839 839 839 838 838
813 815 817 820 823 826 828 829 830 831 831 833 835 837 838 838 840 838 839 840 840 841 841 841 841 841 841 841 840 840 840 839 840
814 816 818 821 823 825 828 830 831 832 833 834 835 837 839 840 841 840 840 841 841 841 842 842 842 843 843 842 842 841 841 840 840
813 816 819 821 823 825 828 830 832 833 833 834 836 837 839 840 841 841 841 841 842 842 843 843 843 843 843 843 843 842 842 841 840
811 816 819 821 823 825 827 829 832 833 834 835 836 837 838 841 841 842 842 842 843 843 843 843 843 843 843 844 844 843 843 843 841
810 814 817 820 823 825 826 828 830 833 834 835 837 837 838 840 841 841 842 842 842 843 843 843 843 844 844 843 843 844 843 843 842
808 811 815 818 821 824 826 828 830 831 834 835 836 837 838 839 839 841 841 842 842 842 843 844 844 844 844 844 844 844 844 844 844
806 809 813 816 819 822 825 827 828 830 833 834 835 836 837 838 839 839 840 841 841 842 842 842 842 843 843 843 843 843 843 844 844
804 808 810 814 817 821 823 826 827 829 830 832 833 835 836 837 838 837 839 839 840 841 840 841 840 841 840 841 841 842 842 842 842
803 806 809 812 815 819 822 824 826 827 829 830 831 832 833 834 836 837 837 837 838 838 839 839 839 838 837 838 839 839 839 840 840
800 804 806 810 813 817 819 822 824 826 827 828 829 830 830 832 834 834 835 835 835 836 837 837 837 836 835 834 834 836 837 838 838
798 802 805 808 811 814 817 819 821 824 825 827 827 827 828 830 831 833 833 834 834 834 835 835 834 834 832 831 831 832 833 835 836
797 800 803 806 809 812 815 817 818 821 823 825 825 825 826 827 828 830 830 831 831 832 833 833 832 831 830 829 828 828 830 832 833
795 798 801 804 806 809 812 814 815 817 820 823 823 823 823 824 826 827 828 828 829 830 830 831 831 830 829 828 827 827 827 830 830
790 794 797 801 803 805 809 813 813 814 817 820 821 822 822 820 822 824 825 827 828 828 828 829 829 828 828 827 826 825 825 828 829
788 791 794 797 800 803 806 808 809 810 813 817 819 821 821 816 817 820 822 824 826 828 828 827 827 828 828 826 825 825 826 827 829
785 789 789 795 797 800 801 803 805 808 810 813 816 815 816 814 818 818 820 822 824 826 826 826 826 826 826 826 825 825 825 826 828
785 784 785 788 790 794 797 799 798 801 804 808 810 811 813 812 812 818 820 820 822 823 824 824 825 825 825 823 823 823 824 825 827